EW1392 Weather Reports


Display with metric or nautical units.
time (UTC)temp
F
wind
direction
speed
MPH
gust
MPH
rain 1hr
in
rain 24hr
in
rain mn
in
humidity
%
barometer
mb
20260506083059 49 200 0.0 0.0 0.00 0.00 0.00 87 1011.4
20260506081609 50 200 0.0 0.0 0.00 0.00 0.00 86 1011.4
20260506073047 51 200 0.0 0.0 0.00 0.00 0.00 84 1010.9
20260506071544 52 200 0.0 0.0 0.00 0.00 0.00 83 1010.8
20260506061543 55 200 0.0 0.0 0.00 0.00 0.00 78 1010.3
20260506050103 60 200 0.0 0.0 0.00 0.00 0.00 71 1009.8
20260506044542 61 200 0.0 0.0 0.00 0.00 0.00 69 1009.7
20260506043036 62 200 0.0 0.0 0.00 0.00 0.00 66 1009.4
20260506041551 63 200 0.0 0.0 0.00 0.00 0.00 63 1009.2
20260506040038 65 200 0.0 0.0 0.00 0.00 0.00 61 1009.1
20260506034548 67 200 0.0 0.0 0.00 0.00 0.00 57 1008.9
20260506033036 69 200 0.0 1.0 0.00 0.00 0.00 54 1008.7
20260506031535 70 202 0.0 4.0 0.00 0.00 0.00 49 1008.4
20260506030037 71 286 0.0 1.0 0.00 0.00 0.00 48 1008.3
20260506024535 72 209 0.0 2.0 0.00 0.00 0.00 46 1008.1
20260506023033 73 219 0.0 4.0 0.00 0.00 0.00 43 1008.0
20260506021533 74 290 0.0 2.0 0.00 0.00 0.00 41 1007.8
20260506020032 75 262 0.0 3.0 0.00 0.00 0.00 40 1007.8
20260506014532 76 187 0.0 5.0 0.00 0.00 0.00 38 1007.6
20260506013046 77 339 0.0 4.0 0.00 0.00 0.00 37 1007.6
20260506011531 78 200 0.0 3.0 0.00 0.00 0.00 34 1007.5
20260506010033 79 265 0.0 3.0 0.00 0.00 0.00 32 1007.4
20260506004529 79 198 0.0 3.0 0.00 0.00 0.00 32 1007.5
20260506003029 80 263 0.0 6.0 0.00 0.00 0.00 32 1007.4
20260506001528 81 210 0.0 4.0 0.00 0.00 0.00 31 1007.5
20260506000027 81 198 0.0 3.0 0.00 0.00 0.00 30 1007.5
20260505234527 81 201 0.0 7.0 0.00 0.00 0.00 30 1007.6
20260505233028 82 155 0.0 4.0 0.00 0.00 0.00 31 1007.6
20260505231528 83 161 0.0 11.0 0.00 0.00 0.00 29 1007.6
20260505230025 83 294 0.0 4.0 0.00 0.00 0.00 28 1007.4
20260505224524 82 213 0.0 5.0 0.00 0.00 0.00 27 1007.6
20260505223022 83 134 0.0 8.0 0.00 0.00 0.00 29 1007.6
20260505221522 83 200 1.0 5.0 0.00 0.00 0.00 27 1007.7
20260505220031 83 182 0.0 5.0 0.00 0.00 0.00 28 1007.7
20260505214522 82 213 0.0 4.0 0.00 0.00 0.00 26 1007.9
20260505213017 81 90 0.0 4.0 0.00 0.00 0.00 32 1007.9
20260505211516 81 201 0.0 5.0 0.00 0.00 0.00 28 1008.0
20260505210015 82 193 0.0 3.0 0.00 0.00 0.00 27 1008.1
20260505204514 82 176 0.0 2.0 0.00 0.00 0.00 29 1008.1
20260505203012 82 221 0.0 3.0 0.00 0.00 0.00 29 1008.3
20260505201509 81 264 0.0 3.0 0.00 0.00 0.00 31 1008.3
20260505200011 79 85 0.0 2.0 0.00 0.00 0.00 34 1008.6
20260505194502 78 257 0.0 2.0 0.00 0.00 0.00 37 1008.8
20260505193105 78 65 0.0 1.0 0.00 0.00 0.00 36 1008.9
20260505191609 77 248 0.0 2.0 0.00 0.00 0.00 38 1009.1
20260505190055 76 216 0.0 3.0 0.00 0.00 0.00 40 1009.2
20260505184556 75 213 0.0 0.0 0.00 0.00 0.00 41 1009.5
20260505183048 74 225 0.0 0.0 0.00 0.00 0.00 43 1009.6
20260505181554 73 225 0.0 0.0 0.00 0.00 0.00 44 1009.8
20260505180043 72 177 0.0 0.0 0.00 0.00 0.00 49 1009.9
20260505174539 70 215 0.0 0.0 0.00 0.00 0.00 48 1009.9
20260505173037 69 225 0.0 0.0 0.00 0.00 0.00 50 1010.1
20260505171532 68 226 0.0 0.0 0.00 0.00 0.00 53 1010.1
20260505170032 67 226 0.0 0.0 0.00 0.00 0.00 55 1010.2
20260505164527 65 226 0.0 0.0 0.00 0.00 0.00 57 1010.3
20260505163023 65 223 0.0 0.0 0.00 0.00 0.00 56 1010.4
20260505161535 64 223 0.0 0.0 0.00 0.00 0.00 62 1010.4
20260505153012 53 294 0.0 0.0 0.00 0.00 0.00 89 1010.8
20260505151507 51 294 0.0 0.0 0.00 0.00 0.00 93 1010.8
20260505130111 43 294 0.0 0.0 0.00 0.00 0.00 94 1010.1
20260505124556 43 294 0.0 0.0 0.00 0.00 0.00 93 1010.1
20260505123056 43 180 0.0 0.0 0.00 0.00 0.00 93 1010.0
20260505121553 43 180 0.0 0.0 0.00 0.00 0.00 93 1009.9
20260505120054 44 180 0.0 0.0 0.00 0.00 0.00 92 1009.8
20260505114551 44 180 0.0 0.0 0.00 0.00 0.00 92 1009.7
20260505113048 44 180 0.0 0.0 0.00 0.00 0.00 91 1009.8
20260505111546 45 180 0.0 0.0 0.00 0.00 0.00 92 1009.7
20260505101544 46 180 0.0 0.0 0.00 0.00 0.00 90 1009.4
20260505100036 47 180 0.0 0.0 0.00 0.00 0.00 89 1009.2
20260505094534 47 180 0.0 0.0 0.00 0.00 0.00 89 1009.1
20260505093034 47 180 0.0 0.0 0.00 0.00 0.00 88 1009.1
20260505091534 48 180 0.0 0.0 0.00 0.00 0.00 87 1009.1
20260505090039 48 180 0.0 0.0 0.00 0.00 0.00 86 1008.9
20260505084526 49 180 0.0 0.0 0.00 0.00 0.00 87 1008.9